Time,TemperatureF,DewpointF,PressureIn,WindDirection,WindDirectionDegrees,WindSpeedMPH,WindSpeedGustMPH,Humidity,HourlyPrecipIn,Conditions,Clouds,dailyrainin,SoftwareType,DateUTC
2013-09-22 00:00:00,59.0,57.0,27.73,East,86,3.6,7.8,93,-99.99,,,0.00,VWS V14.01,2013-09-22 04:00:00,
2013-09-22 00:30:00,59.0,57.0,27.76,East,82,0.0,8.3,93,-99.99,,,0.00,VWS V14.01,2013-09-22 04:30:00,
2013-09-22 01:00:00,58.8,56.8,27.76,ENE,74,4.0,6.3,93,-99.99,,,0.00,VWS V14.01,2013-09-22 05:00:00,
2013-09-22 01:30:00,58.6,56.6,27.76,ENE,65,0.0,7.8,93,-99.99,,,0.00,VWS V14.01,2013-09-22 05:30:00,
2013-09-22 02:00:00,58.5,56.5,27.73,ENE,73,0.0,5.8,93,-99.99,,,0.00,VWS V14.01,2013-09-22 06:00:00,
2013-09-22 02:30:00,58.1,56.1,27.73,East,85,3.1,5.8,93,-99.99,,,0.00,VWS V14.01,2013-09-22 06:30:00,
2013-09-22 03:00:00,57.9,55.9,27.73,ENE,78,4.5,7.4,93,-99.99,,,0.00,VWS V14.01,2013-09-22 07:00:00,
2013-09-22 03:30:00,57.7,55.7,27.73,ENE,75,2.7,7.4,93,-99.99,,,0.00,VWS V14.01,2013-09-22 07:30:00,
2013-09-22 04:00:00,57.6,55.6,27.73,ENE,69,0.0,9.2,93,-99.99,,,0.00,VWS V14.01,2013-09-22 08:00:00,
2013-09-22 04:30:00,57.2,55.5,27.73,ENE,62,0.0,7.4,94,-99.99,,,0.00,VWS V14.01,2013-09-22 08:30:00,
2013-09-22 05:00:00,57.2,55.5,27.73,ENE,75,3.6,8.3,94,-99.99,,,0.00,VWS V14.01,2013-09-22 09:00:00,
2013-09-22 05:30:00,57.2,55.5,27.73,ENE,57,4.5,7.4,94,-99.99,,,0.00,VWS V14.01,2013-09-22 09:30:00,
2013-09-22 06:00:00,57.0,55.3,27.73,ENE,65,3.1,8.3,94,-99.99,,,0.00,VWS V14.01,2013-09-22 10:00:00,
2013-09-22 06:30:00,56.8,55.1,27.76,ENE,69,3.6,5.4,94,-99.99,,,0.00,VWS V14.01,2013-09-22 10:30:00,
2013-09-22 07:00:00,56.8,55.1,27.76,ENE,65,3.6,7.8,94,-99.99,,,0.00,VWS V14.01,2013-09-22 11:00:00,
2013-09-22 07:30:00,56.5,54.8,27.76,ENE,70,3.1,7.8,94,-99.99,,,0.00,VWS V14.01,2013-09-22 11:30:00,
2013-09-22 08:00:00,56.1,54.4,27.76,East,87,3.1,7.8,94,-99.99,,,0.00,VWS V14.01,2013-09-22 12:00:00,
2013-09-22 08:30:00,56.3,54.6,27.76,ENE,61,4.5,8.3,94,-99.99,,,0.00,VWS V14.01,2013-09-22 12:30:00,
2013-09-22 09:00:00,56.7,55.0,27.79,ENE,72,2.7,8.7,94,-99.99,,,0.00,VWS V14.01,2013-09-22 13:00:00,
2013-09-22 09:30:00,57.6,55.8,27.79,ENE,77,3.6,9.6,94,-99.99,,,0.00,VWS V14.01,2013-09-22 13:30:00,
2013-09-22 10:00:00,57.9,56.2,27.79,East,84,5.4,9.6,94,-99.99,,,0.00,VWS V14.01,2013-09-22 14:00:00,
2013-09-22 10:30:00,58.5,56.7,27.79,East,84,3.6,11.0,94,-99.99,,,0.00,VWS V14.01,2013-09-22 14:30:00,
2013-09-22 11:00:00,59.0,57.3,27.79,East,79,2.7,10.5,94,-99.99,,,0.00,VWS V14.01,2013-09-22 15:00:00,
2013-09-22 11:30:00,59.7,58.0,27.82,ENE,65,5.4,8.7,94,-99.99,,,0.00,VWS V14.01,2013-09-22 15:30:00,
2013-09-22 12:00:00,61.7,60.0,27.82,ENE,73,4.9,9.2,94,-99.99,,,0.00,VWS V14.01,2013-09-22 16:00:00,
2013-09-22 12:30:00,64.9,62.6,27.82,East,86,0.0,8.3,92,-99.99,,,0.00,VWS V14.01,2013-09-22 16:30:00,
2013-09-22 13:00:00,66.4,57.8,27.82,ENE,73,0.0,6.9,74,-99.99,,,0.00,VWS V14.01,2013-09-22 17:00:00,
2013-09-22 13:30:00,68.2,55.1,27.82,East,90,0.0,5.8,63,-99.99,,,0.00,VWS V14.01,2013-09-22 17:30:00,
2013-09-22 14:00:00,70.2,51.2,27.79,East,100,0.0,6.7,51,-99.99,,,0.00,VWS V14.01,2013-09-22 18:00:00,
2013-09-22 14:30:00,71.4,49.6,27.79,NE,40,0.0,4.0,46,-99.99,,,0.00,VWS V14.01,2013-09-22 18:30:00,
2013-09-22 15:00:00,72.5,48.8,27.79,NE,44,0.0,5.8,43,-99.99,,,0.00,VWS V14.01,2013-09-22 19:00:00,
2013-09-22 15:30:00,73.9,48.1,27.79,ENE,68,0.0,6.9,40,-99.99,,,0.00,VWS V14.01,2013-09-22 19:30:00,
2013-09-22 16:00:00,75.2,49.2,27.79,ENE,65,0.0,3.1,40,-99.99,,,0.00,VWS V14.01,2013-09-22 20:00:00,
2013-09-22 16:30:00,75.6,48.9,27.79,East,87,0.0,5.4,39,-99.99,,,0.00,VWS V14.01,2013-09-22 20:30:00,
2013-09-22 17:00:00,75.7,49.0,27.79,East,87,0.0,4.5,39,-99.99,,,0.00,VWS V14.01,2013-09-22 21:00:00,
2013-09-22 17:30:00,74.3,45.7,27.79,ENE,77,0.0,0.0,36,-99.99,,,0.00,VWS V14.01,2013-09-22 21:30:00,
2013-09-22 18:00:00,68.9,47.3,27.79,ENE,78,0.0,2.7,46,-99.99,,,0.00,VWS V14.01,2013-09-22 22:00:00,
2013-09-22 18:30:00,66.0,48.9,27.79,ENE,77,0.0,0.0,54,-99.99,,,0.00,VWS V14.01,2013-09-22 22:30:00,
2013-09-22 19:00:00,64.4,50.2,27.79,ENE,77,0.0,0.0,60,-99.99,,,0.00,VWS V14.01,2013-09-22 23:00:00,
2013-09-22 19:30:00,63.0,50.6,27.79,ENE,73,0.0,0.0,64,-99.99,,,0.00,VWS V14.01,2013-09-22 23:30:00,
2013-09-22 20:00:00,61.7,49.8,27.79,ENE,70,0.0,0.0,65,-99.99,,,0.00,VWS V14.01,2013-09-23 00:00:00,
2013-09-22 20:30:00,61.2,50.1,27.79,East,79,0.0,0.0,67,-99.99,,,0.00,VWS V14.01,2013-09-23 00:30:00,
2013-09-22 21:00:00,60.4,49.4,27.82,ENE,73,0.0,0.0,67,-99.99,,,0.00,VWS V14.01,2013-09-23 01:00:00,
2013-09-22 21:30:00,59.7,50.3,27.82,East,90,0.0,0.0,71,-99.99,,,0.00,VWS V14.01,2013-09-23 01:30:00,
2013-09-22 22:00:00,59.5,50.5,27.82,ENE,70,0.0,5.8,72,-99.99,,,0.00,VWS V14.01,2013-09-23 02:00:00,
2013-09-22 22:30:00,59.2,49.8,27.82,ENE,68,0.0,2.7,71,-99.99,,,0.00,VWS V14.01,2013-09-23 02:30:00,
2013-09-22 23:00:00,59.0,50.0,27.82,ENE,73,0.0,5.4,72,-99.99,,,0.00,VWS V14.01,2013-09-23 03:00:00,
2013-09-22 23:30:00,58.5,49.8,27.82,East,88,0.0,5.4,73,-99.99,,,0.00,VWS V14.01,2013-09-23 03:30:00,